Regional Weather Roundup
Issued by NWS

Home | Current Version | Previous Version | Graphics & Text | Print | Product List | Glossary On
Versions: 1 2 3 4 5 6 7 8 9 10 11 12 13 14 15 16 17 18 19 20 21 22 23 24 25 26 27 28 29 30 31 32 33 34 35 36 37 38 39 40 41 42 43 44 45 46 47 48
000
ASUS45 KSLC 240310
RWRUT

UTAH REGIONAL WEATHER ROUNDUP
NATIONAL WEATHER SERVICE SALT LAKE CITY UT
800 PM MST TUE DEC 23 2014

UTZ001>011-023>025-240400-

NORTHERN UTAH

CITY           SKY/WX    TMP DP  RH WIND       PRES   REMARKS
BRIGHAM CITY     N/A     31  23  72 CALM      30.38S
HILL AFB         N/A     29  17  61 E7        30.35S WCI  21
LOGAN            N/A     26  21  81 CALM      30.36R
OGDEN            N/A     29  20  69 SE5       30.35S WCI  24
PROVO AIRPORT  NOT AVBL
SALT LAKE CITY   N/A     32  21  64 S3        30.35F
VERNAL           N/A     24  13  62 CALM      30.27S
WENDOVER         N/A     28  18  64 W5        30.35F WCI  23
HEBER CITY       N/A     23  18  80 CALM      30.33R
WEST JORDAN    CLEAR     28  25  86 SW6       30.36F WCI  22

$$

UTZ012>022-026-027-240400-

SOUTHERN/CENTRAL UTAH

CITY           SKY/WX    TMP DP  RH WIND       PRES   REMARKS
BLANDING         N/A     27  13  54 SW8       30.31S WCI  19
BRYCE CANYON     N/A     22  14  71 N9        30.27F WCI  12
CEDAR CITY       N/A     28  10  46 N7        30.31F WCI  21
DELTA            N/A     28  21  73 CALM      30.36F
MILFORD          N/A     25  14  63 CALM      30.35S
MOAB/CYNLANDS    N/A     28  21  75 SW3       30.27S
PRICE            N/A     30   8  39 N12G21    30.26S WCI  20
ST GEORGE        N/A     48   9  20 NE8       30.30S
KANAB            N/A     36  12  38 NW12      30.31R WCI  27

$$

REGIONAL REPORTS     COLORADO/ARIZONA

CITY           SKY/WX    TMP DP  RH WIND       PRES   REMARKS
CRAIG, CO        N/A      6   3  87 CALM      30.27S
GRAND JUNCTION   N/A     27  16  63 SE3       30.29R
RIFLE          CLOUDY    23  14  68 SE5       30.29S WCI  17
MONTROSE         N/A     23  14  68 SE6       30.30R WCI  16
CORTEZ           N/A     24  11  57 NE3       30.23S
PAGE, AZ         N/A     37  11  34 SE7       30.27R WCI  32
GRAND CANYON     N/A     21  15  78 NE3       30.27R
KINGMAN          N/A     40  17  39 E9        30.26S WCI  34
FLAGSTAFF        N/A     29   3  33 NE24G30   30.20S WCI  15

$$

REGIONAL REPORTS    NEVADA/IDAHO/WYOMING

CITY           SKY/WX    TMP DP  RH WIND       PRES   REMARKS
LAS VEGAS, NV    N/A     54  18  24 SW7       30.25R
ELY              N/A     24  17  74 S8        30.32F WCI  15
ELKO             N/A     31  25  78 CALM      30.29F
POCATELLO, ID    N/A     28  23  81 CALM      30.31F
BURLEY           N/A     28  23  81 CALM      30.29F
EVANSTON, WY     N/A     18  10  71 SW7       30.28S WCI   9
ROCK SPRINGS     N/A     19   9  65 W20G26    30.21S WCI   3

$$



USA.gov is the U.S. government's official web portal to all federal, state and local government web resources and services.